Time,TemperatureF,DewpointF,PressureIn,WindDirection,WindDirectionDegrees,WindSpeedMPH,WindSpeedGustMPH,Humidity,HourlyPrecipIn,Conditions,Clouds,dailyrainin,SoftwareType,DateUTC
2013-05-28 00:02:00,73.0,64.0,29.70,East,87,2.0,9.0,74,0.00,,,2.67,,2013-05-28 05:02:00,
2013-05-28 00:12:00,73.0,64.0,29.70,East,87,2.0,9.0,74,0.00,,,2.67,,2013-05-28 05:12:00,
2013-05-28 00:22:00,73.0,64.0,29.70,ESE,115,3.0,11.0,74,0.00,,,2.67,,2013-05-28 05:22:00,
2013-05-28 00:33:00,73.0,65.0,29.69,SE,139,2.0,12.0,75,0.00,,,2.67,,2013-05-28 05:33:00,
2013-05-28 00:42:00,73.0,65.0,29.69,SE,139,2.0,12.0,75,0.00,,,2.67,,2013-05-28 05:42:00,
2013-05-28 00:52:00,73.0,65.0,29.68,SE,132,2.0,10.0,75,0.00,,,2.67,,2013-05-28 05:52:00,
2013-05-28 01:02:00,72.0,64.0,29.67,East,87,4.0,13.0,76,0.00,,,2.67,,2013-05-28 06:02:00,
2013-05-28 01:12:00,72.0,64.0,29.67,East,87,4.0,13.0,76,0.00,,,2.67,,2013-05-28 06:12:00,
2013-05-28 01:21:00,72.0,64.0,29.67,SSE,161,3.0,12.0,76,0.00,,,2.67,,2013-05-28 06:21:00,
2013-05-28 01:31:00,72.0,64.0,29.68,South,180,0.0,15.0,77,0.00,,,2.67,,2013-05-28 06:31:00,
2013-05-28 01:42:00,72.0,64.0,29.68,South,180,0.0,15.0,77,0.00,,,2.67,,2013-05-28 06:42:00,
2013-05-28 01:52:00,72.0,64.0,29.69,WSW,254,1.0,12.0,77,0.00,,,2.67,,2013-05-28 06:52:00,
2013-05-28 02:01:00,72.0,64.0,29.70,SE,144,0.0,6.0,77,0.00,,,2.67,,2013-05-28 07:01:00,
2013-05-28 02:11:00,72.0,64.0,29.70,SE,144,0.0,6.0,77,0.00,,,2.67,,2013-05-28 07:11:00,
2013-05-28 02:21:00,72.0,64.0,29.70,WSW,255,1.0,12.0,77,0.00,,,2.67,,2013-05-28 07:21:00,
2013-05-28 02:32:00,72.0,64.0,29.71,West,275,2.0,12.0,77,0.00,,,2.67,,2013-05-28 07:32:00,
2013-05-28 02:42:00,72.0,64.0,29.71,West,275,2.0,12.0,77,0.00,,,2.67,,2013-05-28 07:42:00,
2013-05-28 02:52:00,72.0,65.0,29.71,SSE,165,1.0,10.0,78,0.00,,,2.67,,2013-05-28 07:52:00,
2013-05-28 03:02:00,72.0,65.0,29.72,NNE,19,0.0,10.0,79,0.00,,,2.67,,2013-05-28 08:02:00,
2013-05-28 03:11:00,72.0,65.0,29.72,NNE,19,0.0,10.0,79,0.00,,,2.67,,2013-05-28 08:11:00,
2013-05-28 03:22:00,71.0,64.0,29.72,SSW,209,0.0,6.0,79,0.00,,,2.67,,2013-05-28 08:22:00,
2013-05-28 03:32:00,71.0,65.0,29.72,South,175,1.0,8.0,80,0.00,,,2.67,,2013-05-28 08:32:00,
2013-05-28 03:42:00,71.0,65.0,29.72,South,175,1.0,8.0,80,0.00,,,2.67,,2013-05-28 08:42:00,
2013-05-28 03:52:00,71.0,65.0,29.72,SE,146,0.0,5.0,80,0.00,,,2.67,,2013-05-28 08:52:00,
2013-05-28 04:01:00,71.0,65.0,29.72,SE,134,0.0,6.0,81,0.00,,,2.67,,2013-05-28 09:01:00,
2013-05-28 04:11:00,71.0,65.0,29.72,SE,134,0.0,6.0,81,0.00,,,2.67,,2013-05-28 09:11:00,
2013-05-28 04:21:00,71.0,65.0,29.71,WSW,242,0.0,3.0,81,0.00,,,2.67,,2013-05-28 09:21:00,
2013-05-28 04:33:00,70.0,64.0,29.71,SSE,159,0.0,6.0,81,0.00,,,2.67,,2013-05-28 09:33:00,
2013-05-28 04:42:00,70.0,64.0,29.71,SSE,159,0.0,6.0,81,0.00,,,2.67,,2013-05-28 09:42:00,
2013-05-28 04:54:00,70.0,64.0,29.71,SE,137,0.0,9.0,81,0.00,,,2.67,,2013-05-28 09:54:00,
2013-05-28 05:03:00,70.0,64.0,29.71,SSE,149,1.0,8.0,81,0.00,,,2.67,,2013-05-28 10:03:00,
2013-05-28 05:12:00,70.0,64.0,29.71,SSE,149,1.0,8.0,81,0.00,,,2.67,,2013-05-28 10:12:00,
2013-05-28 05:22:00,70.0,64.0,29.71,WSW,246,0.0,7.0,82,0.00,,,2.67,,2013-05-28 10:22:00,
2013-05-28 05:32:00,70.0,64.0,29.72,South,187,0.0,5.0,82,0.00,,,2.67,,2013-05-28 10:32:00,
2013-05-28 05:42:00,70.0,64.0,29.72,South,187,0.0,5.0,82,0.00,,,2.67,,2013-05-28 10:42:00,
2013-05-28 05:53:00,69.0,64.0,29.72,South,181,0.0,4.0,83,0.00,,,2.67,,2013-05-28 10:53:00,
2013-05-28 06:02:00,69.0,64.0,29.72,South,187,0.0,4.0,83,0.00,,,2.67,,2013-05-28 11:02:00,
2013-05-28 06:11:00,69.0,64.0,29.72,South,187,0.0,4.0,83,0.00,,,2.67,,2013-05-28 11:11:00,
2013-05-28 06:22:00,69.0,64.0,29.72,South,186,0.0,4.0,83,0.00,,,2.67,,2013-05-28 11:22:00,
2013-05-28 06:32:00,69.0,64.0,29.72,South,186,0.0,1.0,84,0.00,,,2.67,,2013-05-28 11:32:00,
2013-05-28 06:42:00,69.0,64.0,29.72,South,186,0.0,1.0,84,0.00,,,2.67,,2013-05-28 11:42:00,
2013-05-28 06:52:00,69.0,64.0,29.72,SW,229,0.0,5.0,84,0.00,,,2.67,,2013-05-28 11:52:00,
2013-05-28 07:01:00,69.0,64.0,29.73,SE,141,0.0,4.0,84,0.00,,,2.67,,2013-05-28 12:01:00,
2013-05-28 07:11:00,69.0,64.0,29.73,SE,141,0.0,4.0,84,0.00,,,2.67,,2013-05-28 12:11:00,
2013-05-28 07:21:00,69.0,64.0,29.74,SSE,147,0.0,6.0,83,0.00,,,2.67,,2013-05-28 12:21:00,
2013-05-28 07:32:00,70.0,65.0,29.74,SSW,210,0.0,6.0,83,0.00,,,2.67,,2013-05-28 12:32:00,
2013-05-28 07:42:00,70.0,65.0,29.74,SSW,210,0.0,6.0,83,0.00,,,2.67,,2013-05-28 12:42:00,
2013-05-28 07:52:00,70.0,65.0,29.74,SSE,167,1.0,7.0,83,0.00,,,2.67,,2013-05-28 12:52:00,
2013-05-28 08:01:00,70.0,64.0,29.74,ESE,105,0.0,1.0,82,0.00,,,2.67,,2013-05-28 13:01:00,
2013-05-28 08:11:00,70.0,64.0,29.74,ESE,105,0.0,1.0,82,0.00,,,2.67,,2013-05-28 13:11:00,
2013-05-28 08:21:00,70.0,64.0,29.74,SSW,198,1.0,8.0,82,0.00,,,2.67,,2013-05-28 13:21:00,
2013-05-28 08:32:00,71.0,65.0,29.75,SSW,194,0.0,4.0,82,0.00,,,2.67,,2013-05-28 13:32:00,
2013-05-28 08:42:00,71.0,65.0,29.75,SSW,194,0.0,4.0,82,0.00,,,2.67,,2013-05-28 13:42:00,
2013-05-28 08:52:00,71.0,65.0,29.75,SW,217,0.0,4.0,82,0.00,,,2.67,,2013-05-28 13:52:00,
2013-05-28 09:01:00,71.0,65.0,29.75,South,172,1.0,7.0,82,0.00,,,2.67,,2013-05-28 14:01:00,
2013-05-28 09:11:00,71.0,65.0,29.75,South,172,1.0,7.0,82,0.00,,,2.67,,2013-05-28 14:11:00,
2013-05-28 09:21:00,72.0,66.0,29.75,SSW,200,0.0,6.0,82,0.00,,,2.41,,2013-05-28 14:21:00,
2013-05-28 09:32:00,72.0,66.0,29.75,SE,131,0.0,7.0,82,0.00,,,2.41,,2013-05-28 14:32:00,
2013-05-28 09:42:00,72.0,66.0,29.75,SE,131,0.0,7.0,82,0.00,,,2.41,,2013-05-28 14:42:00,
2013-05-28 09:52:00,73.0,66.0,29.75,South,191,1.0,9.0,80,0.00,,,2.41,,2013-05-28 14:52:00,
2013-05-28 10:01:00,73.0,66.0,29.75,South,191,1.0,9.0,80,0.00,,,2.41,,2013-05-28 15:01:00,
2013-05-28 10:11:00,73.0,66.0,29.75,South,191,1.0,9.0,80,0.00,,,2.41,,2013-05-28 15:11:00,
2013-05-28 10:21:00,74.0,67.0,29.74,SE,144,1.0,7.0,80,0.00,,,1.08,,2013-05-28 15:21:00,
2013-05-28 10:32:00,74.0,67.0,29.73,SSW,195,1.0,8.0,79,0.00,,,1.08,,2013-05-28 15:32:00,
2013-05-28 10:43:00,74.0,67.0,29.73,SSW,195,1.0,8.0,79,0.00,,,1.08,,2013-05-28 15:43:00,
2013-05-28 10:53:00,76.0,69.0,29.73,West,264,1.0,11.0,78,0.00,,,1.08,,2013-05-28 15:53:00,
2013-05-28 11:03:00,76.0,68.0,29.73,South,178,1.0,12.0,76,0.00,,,1.08,,2013-05-28 16:03:00,
2013-05-28 11:12:00,76.0,68.0,29.73,South,178,1.0,12.0,76,0.00,,,1.08,,2013-05-28 16:12:00,
2013-05-28 11:22:00,76.0,69.0,29.73,South,190,2.0,11.0,78,0.00,,,0.25,,2013-05-28 16:22:00,
2013-05-28 11:33:00,76.0,68.0,29.73,East,81,1.0,12.0,77,0.00,,,0.25,,2013-05-28 16:33:00,
2013-05-28 11:42:00,76.0,68.0,29.73,East,81,1.0,12.0,77,0.00,,,0.25,,2013-05-28 16:42:00,
2013-05-28 11:52:00,76.0,69.0,29.73,South,181,0.0,11.0,78,0.00,,,0.25,,2013-05-28 16:52:00,
2013-05-28 12:02:00,75.0,68.0,29.73,SSW,203,1.0,9.0,78,0.00,,,0.25,,2013-05-28 17:02:00,
2013-05-28 12:12:00,75.0,68.0,29.73,SSW,203,1.0,9.0,78,0.00,,,0.25,,2013-05-28 17:12:00,
2013-05-28 12:22:00,75.0,68.0,29.73,SSW,203,1.0,9.0,78,0.00,,,0.25,,2013-05-28 17:22:00,
2013-05-28 12:32:00,74.0,68.0,29.75,South,179,0.0,10.0,81,0.00,,,0.00,,2013-05-28 17:32:00,
2013-05-28 12:42:00,74.0,68.0,29.75,South,177,1.0,19.0,81,0.00,,,0.00,,2013-05-28 17:42:00,
2013-05-28 12:52:00,74.0,68.0,29.75,South,177,1.0,19.0,81,0.00,,,0.00,,2013-05-28 17:52:00,
2013-05-28 13:01:00,73.0,67.0,29.73,South,189,1.0,6.0,81,0.00,,,0.00,,2013-05-28 18:01:00,
2013-05-28 13:11:00,73.0,67.0,29.73,South,189,1.0,6.0,81,0.00,,,0.00,,2013-05-28 18:11:00,
2013-05-28 13:21:00,73.0,67.0,29.74,SSW,204,2.0,9.0,82,0.00,,,0.00,,2013-05-28 18:21:00,
2013-05-28 13:32:00,72.0,67.0,29.74,SSE,159,1.0,11.0,83,0.00,,,0.00,,2013-05-28 18:32:00,
2013-05-28 13:42:00,72.0,67.0,29.75,ESE,123,0.0,10.0,84,0.00,,,0.00,,2013-05-28 18:42:00,
2013-05-28 13:52:00,72.0,67.0,29.75,ESE,123,0.0,10.0,84,0.00,,,0.00,,2013-05-28 18:52:00,
2013-05-28 14:01:00,72.0,67.0,29.75,SW,217,0.0,10.0,85,0.00,,,0.00,,2013-05-28 19:01:00,
2013-05-28 14:11:00,72.0,67.0,29.75,SW,217,0.0,10.0,85,0.00,,,0.00,,2013-05-28 19:11:00,
2013-05-28 14:21:00,71.0,66.0,29.74,SSW,192,1.0,8.0,85,0.00,,,0.00,,2013-05-28 19:21:00,
2013-05-28 14:32:00,71.0,67.0,29.74,SE,145,0.0,4.0,87,0.00,,,0.00,,2013-05-28 19:32:00,
2013-05-28 14:42:00,71.0,67.0,29.74,SE,145,0.0,4.0,87,0.00,,,0.00,,2013-05-28 19:42:00,
2013-05-28 14:52:00,71.0,67.0,29.75,SSW,203,0.0,3.0,87,0.00,,,0.00,,2013-05-28 19:52:00,
2013-05-28 15:01:00,71.0,67.0,29.75,South,182,0.0,7.0,88,0.00,,,0.00,,2013-05-28 20:01:00,
2013-05-28 15:11:00,71.0,67.0,29.75,South,182,0.0,7.0,88,0.00,,,0.00,,2013-05-28 20:11:00,
2013-05-28 15:22:00,72.0,68.0,29.75,SSE,162,1.0,6.0,88,0.00,,,0.00,,2013-05-28 20:22:00,
2013-05-28 15:32:00,72.0,68.0,29.75,SSE,157,1.0,7.0,88,0.00,,,0.00,,2013-05-28 20:32:00,
2013-05-28 15:42:00,72.0,68.0,29.75,SSE,157,1.0,7.0,88,0.00,,,0.00,,2013-05-28 20:42:00,
2013-05-28 15:52:00,73.0,69.0,29.75,West,261,1.0,8.0,88,0.00,,,0.00,,2013-05-28 20:52:00,
2013-05-28 16:01:00,74.0,70.0,29.75,WSW,245,2.0,8.0,86,0.00,,,0.00,,2013-05-28 21:01:00,
2013-05-28 16:11:00,76.0,70.0,29.75,SE,132,1.0,12.0,81,0.00,,,0.00,,2013-05-28 21:11:00,
2013-05-28 16:21:00,76.0,70.0,29.75,SE,132,1.0,12.0,81,0.00,,,0.00,,2013-05-28 21:21:00,
2013-05-28 16:33:00,76.0,69.0,29.75,ESE,111,0.0,10.0,80,0.00,,,0.00,,2013-05-28 21:33:00,
2013-05-28 16:43:00,76.0,69.0,29.75,SE,136,1.0,11.0,78,0.00,,,0.00,,2013-05-28 21:43:00,
2013-05-28 16:53:00,76.0,69.0,29.75,SE,136,1.0,11.0,78,0.00,,,0.00,,2013-05-28 21:53:00,
2013-05-28 17:02:00,76.0,69.0,29.73,South,174,2.0,11.0,79,0.00,,,0.00,,2013-05-28 22:02:00,
2013-05-28 17:12:00,76.0,68.0,29.72,WSW,242,2.0,11.0,77,0.00,,,0.00,,2013-05-28 22:12:00,
2013-05-28 17:22:00,76.0,68.0,29.72,WSW,242,2.0,11.0,77,0.00,,,0.00,,2013-05-28 22:22:00,
2013-05-28 17:32:00,76.0,68.0,29.72,SSE,157,1.0,12.0,77,0.00,,,0.00,,2013-05-28 22:32:00,
2013-05-28 17:42:00,75.0,68.0,29.74,SE,133,2.0,9.0,78,0.00,,,0.00,,2013-05-28 22:42:00,
2013-05-28 17:52:00,75.0,68.0,29.74,SE,133,2.0,9.0,78,0.00,,,0.00,,2013-05-28 22:52:00,
2013-05-28 18:02:00,74.0,67.0,29.75,SE,146,0.0,6.0,80,0.00,,,0.00,,2013-05-28 23:02:00,
2013-05-28 18:11:00,74.0,67.0,29.74,SSE,155,0.0,9.0,80,0.00,,,0.00,,2013-05-28 23:11:00,
2013-05-28 18:21:00,74.0,67.0,29.74,SSE,155,0.0,9.0,80,0.00,,,0.00,,2013-05-28 23:21:00,
2013-05-28 18:32:00,74.0,67.0,29.72,SE,134,1.0,9.0,79,0.00,,,0.00,,2013-05-28 23:32:00,
2013-05-28 18:42:00,74.0,67.0,29.72,SE,134,1.0,9.0,79,0.00,,,0.00,,2013-05-28 23:42:00,
2013-05-28 18:52:00,74.0,67.0,29.72,ESE,121,1.0,9.0,78,0.00,,,0.00,,2013-05-28 23:52:00,
2013-05-28 19:02:00,74.0,67.0,29.72,SE,134,0.0,5.0,79,0.00,,,0.00,,2013-05-29 00:02:00,
2013-05-28 19:11:00,74.0,67.0,29.72,SE,134,0.0,5.0,79,0.00,,,0.00,,2013-05-29 00:11:00,
2013-05-28 19:21:00,73.0,66.0,29.74,SSE,147,0.0,6.0,79,0.00,,,0.00,,2013-05-29 00:21:00,
2013-05-28 19:32:00,73.0,66.0,29.74,SSE,161,1.0,10.0,80,0.00,,,0.00,,2013-05-29 00:32:00,
2013-05-28 19:41:00,73.0,66.0,29.74,SSE,161,1.0,10.0,80,0.00,,,0.00,,2013-05-29 00:41:00,
2013-05-28 19:52:00,73.0,66.0,29.74,ESE,122,2.0,9.0,80,0.00,,,0.00,,2013-05-29 00:52:00,
2013-05-28 20:01:00,72.0,66.0,29.75,SE,144,1.0,9.0,81,0.00,,,0.00,,2013-05-29 01:01:00,
2013-05-28 20:11:00,72.0,66.0,29.75,SE,144,1.0,9.0,81,0.00,,,0.00,,2013-05-29 01:11:00,
2013-05-28 20:22:00,72.0,66.0,29.77,SSE,153,2.0,10.0,81,0.00,,,0.00,,2013-05-29 01:22:00,
2013-05-28 20:32:00,72.0,65.0,29.77,SE,142,1.0,5.0,80,0.00,,,0.00,,2013-05-29 01:32:00,
2013-05-28 20:42:00,72.0,65.0,29.77,SE,142,1.0,5.0,80,0.00,,,0.00,,2013-05-29 01:42:00,
2013-05-28 20:52:00,72.0,65.0,29.78,SE,124,1.0,5.0,79,0.00,,,0.00,,2013-05-29 01:52:00,
2013-05-28 21:02:00,73.0,66.0,29.78,SE,132,0.0,7.0,78,0.00,,,0.00,,2013-05-29 02:02:00,
2013-05-28 21:12:00,73.0,66.0,29.78,SE,132,0.0,7.0,78,0.00,,,0.00,,2013-05-29 02:12:00,
2013-05-28 21:21:00,72.0,65.0,29.79,South,170,0.0,4.0,79,0.00,,,0.00,,2013-05-29 02:21:00,
2013-05-28 21:32:00,71.0,66.0,29.80,SSE,152,0.0,3.0,84,0.03,,,0.03,,2013-05-29 02:32:00,
2013-05-28 21:42:00,70.0,66.0,29.80,East,100,0.0,4.0,86,0.06,,,0.06,,2013-05-29 02:42:00,
2013-05-28 21:52:00,70.0,66.0,29.80,East,100,0.0,4.0,86,0.06,,,0.06,,2013-05-29 02:52:00,
2013-05-28 22:02:00,69.0,65.0,29.81,South,182,0.0,6.0,88,0.06,,,0.06,,2013-05-29 03:02:00,
2013-05-28 22:12:00,69.0,65.0,29.81,South,182,0.0,6.0,88,0.06,,,0.06,,2013-05-29 03:12:00,
2013-05-28 22:21:00,69.0,66.0,29.81,South,180,0.0,5.0,89,0.06,,,0.06,,2013-05-29 03:21:00,
2013-05-28 22:33:00,69.0,66.0,29.81,South,180,0.0,1.0,90,0.03,,,0.06,,2013-05-29 03:33:00,
2013-05-28 22:43:00,69.0,66.0,29.81,South,180,0.0,1.0,90,0.03,,,0.06,,2013-05-29 03:43:00,
2013-05-28 22:53:00,69.0,66.0,29.82,SE,144,0.0,1.0,90,0.00,,,0.06,,2013-05-29 03:53:00,
2013-05-28 23:02:00,69.0,66.0,29.83,SE,144,0.0,1.0,91,0.00,,,0.06,,2013-05-29 04:02:00,
2013-05-28 23:13:00,69.0,66.0,29.82,ESE,122,0.0,1.0,89,0.00,,,0.06,,2013-05-29 04:13:00,
2013-05-28 23:23:00,69.0,66.0,29.82,ESE,122,0.0,1.0,89,0.00,,,0.06,,2013-05-29 04:23:00,
2013-05-28 23:33:00,69.0,66.0,29.82,SE,126,0.0,3.0,89,0.00,,,0.06,,2013-05-29 04:33:00,
2013-05-28 23:42:00,69.0,66.0,29.82,SE,126,0.0,3.0,89,0.00,,,0.06,,2013-05-29 04:42:00,
2013-05-28 23:52:00,69.0,66.0,29.82,SE,129,0.0,1.0,89,0.00,,,0.06,,2013-05-29 04:52:00,